Home   Weather   Bietigheim-Bissingen   Past weeks

Flag for Germany Past Weather in Bietigheim-Bissingen, Baden-Württemberg, Germany — Yesterday and Last 2 Weeks

Now
66 °F

Clear.


Feels Like: 66 °F
Forecast: 51 / 70 °F
Wind: 7 mph from West

Location: Stuttgart-Echterdingen

Current Time: May 23, 2017 at 10:51:18 pm

Latest Report: May 23, 2017 at 10:20 pm


Visibility: 10 mi

Pressure: 30.12 "Hg

Humidity: 64%

Dew Point: 54 °F

Location of Bietigheim-BissingenLocation

Past Weather in Bietigheim-Bissingen — Graph

°F

Bietigheim-Bissingen Temperature Yesterday

Maximum temperature yesterday: 72 °F (at 3:20 pm)
Minimum temperature yesterday: 54 °F (at 4:50 am)
Average temperature yesterday: 63 °F

High & Low Weather Summary for the Past Weeks

 TemperatureHumidityPressure
High79 °F (May 17, 3:20 pm)100% (May 9, 6:20 am)30.42 "Hg (May 9, 6:20 am)
Low34 °F (May 10, 5:20 am)29% (May 16, 2:50 pm)29.47 "Hg (May 11, 4:50 pm)
Average58 °F72%30.03 "Hg
* Reported May 8 9:20 pm — May 23 9:20 pm, Bietigheim-Bissingen. Weather by CustomWeather, © 2017

Note: Actual official high and low records may vary slightly from our data, if they occured in-between our weather recording intervals... More about our weather records

Advertising

Bietigheim-Bissingen Weather History for the Previous 24 Hours

Scroll right to see more
 ConditionsComfort  
Time TempWeatherWind HumidityBarometerVisibility
9:20 pm
Tue, May 23
70 °FClear.8 mph57%30.09 "Hg10 mi
8:50 pm72 °FSunny.9 mph53%30.09 "Hg10 mi
8:20 pm72 °FPassing clouds.8 mph50%30.09 "HgN/A
7:50 pm73 °FSunny.12 mph47%30.09 "Hg10 mi
7:20 pm73 °FSunny.12 mph47%30.07 "Hg10 mi
6:50 pm73 °FSunny.15 mph47%30.07 "Hg10 mi
6:20 pm73 °FSunny.13 mph47%30.07 "Hg10 mi
5:50 pm75 °FSunny.14 mph41%30.07 "Hg10 mi
5:20 pm75 °FSunny.15 mph41%30.07 "Hg10 mi
4:50 pm75 °FSunny.16 mph41%30.07 "Hg10 mi
4:20 pm75 °FPassing clouds.13 mph39%30.07 "HgN/A
3:50 pm75 °FPassing clouds.13 mph39%30.07 "HgN/A
3:20 pm75 °FPassing clouds.12 mph36%30.07 "HgN/A
2:50 pm75 °FPassing clouds.12 mph39%30.07 "HgN/A
2:20 pm75 °FPassing clouds.10 mph31%30.07 "HgN/A
1:50 pm73 °FSunny.15 mph33%30.07 "Hg10 mi
1:20 pm75 °FSunny.3 mph50%30.07 "Hg10 mi
12:50 pm73 °FSunny.2 mph57%30.07 "Hg10 mi
12:20 pm72 °FScattered clouds.5 mph57%30.07 "HgN/A
11:50 am72 °FScattered clouds.5 mph57%30.09 "HgN/A
11:20 am72 °FScattered clouds.6 mph61%30.09 "HgN/A
10:50 am70 °FSunny.5 mph60%30.07 "Hg10 mi
10:20 am68 °FSunny.5 mph69%30.09 "Hg10 mi
9:50 am66 °FSunny.2 mph68%30.09 "Hg10 mi
9:20 am63 °FSunny.2 mph73%30.09 "Hg10 mi
8:50 am59 °FPassing clouds.3 mph82%30.09 "HgN/A
8:20 am57 °FSunny.2 mph88%30.09 "Hg10 mi
7:50 am55 °FSunny.2 mph88%30.07 "Hg10 mi
7:20 am55 °FSunny.1 mph88%30.07 "Hg10 mi
6:50 am54 °FSunny.1 mph94%30.07 "Hg10 mi
6:20 am54 °FSunny.1 mph88%30.07 "Hg10 mi
5:50 am52 °FSunny.2 mph94%30.07 "Hg10 mi
5:20 am52 °FClear.1 mph94%30.04 "Hg10 mi
4:50 am54 °FClear.1 mph88%30.07 "Hg10 mi
4:20 am52 °FClear.1 mph94%30.07 "Hg10 mi
3:50 am52 °FClear.2 mph94%30.04 "Hg10 mi
3:20 am54 °FClear.1 mph82%30.04 "Hg10 mi
2:50 am54 °FClear.1 mph88%30.07 "Hg10 mi
2:20 am55 °FClear.1 mph82%30.04 "Hg10 mi
1:50 am55 °FPassing clouds.5 mph82%30.04 "HgN/A
1:20 am55 °FClear.3 mph82%30.04 "Hg10 mi
12:50 am57 °FClear.2 mph77%30.04 "Hg10 mi
12:20 am57 °FPassing clouds.5 mph77%30.04 "HgN/A
11:50 pm
Mon, May 22
59 °FClear.5 mph72%30.04 "Hg10 mi
11:20 pm61 °FClear.2 mph68%30.04 "Hg10 mi
10:50 pm61 °FClear.3 mph68%30.04 "Hg10 mi
10:20 pm63 °FClear.1 mph64%30.04 "Hg10 mi
Weather by CustomWeather, © 2017

See weather overviewHow to use our weather pages